Tracking 31027 objects as of 19-Jul-2025
HD Live streaming from Space Station
objects crossing your sky now

COSMOS 2251 DEB

Track COSMOS 2251 DEB now!
10-day predictions


NORAD ID: 33999
Int'l Code: 1993-036GJ
Perigee: 607.7 km
Apogee: 670.0 km
Inclination: 73.9 °
Period: 97.3 minutes
Semi major axis: 7009 km
RCS: 0.0543 m2 (small)
Launch date: June 16, 1993
Source: Commonwealth of Independent States (former USSR) (CIS)
Launch site: PLESETSK MISSILE AND SPACE COMPLEX (PKMTR)

Note: This is SATELLITE DEBRIS
Your satellite tracking list
DEWASAT-2
Track 1 satellite(s)




NASA's NSSDC Master Catalog

Two Line Element Set (TLE):
1 33999U 93036GJ  25199.32240643  .00007414  00000-0  98465-3 0  9995
2 33999  73.9207 163.7006 0044469  90.5064 270.1207 14.79251907870680
Source of the keplerian elements: AFSPC